Location: Unspecified
(35.6961°N, 0.0000°E)
Time: 23:10:16
(UTC+00:00)

Courier 1B Rocket - Pass Details

Date: 24 May 2019
Orbit: 920 x 1202 km, 28.2° (Epoch: 24 June)

Event Time Altitude Azimuth Distance (km) Brightness Sun altitude
Rises 21:54:17 0° 263° (W) 4,043 8.5 -26.4°
Reaches altitude 10° 21:58:40 10° 241° (WSW) 3,033 7.6 -26.9°
Enters shadow 22:01:13 14° 221° (SW) 2,704 7.1 -27.2°
